{"data":{"norad_id":63631,"intl_designator":"2025-081B","name":"TOMORROW-S7","alt_names":[],"object_type":"PAYLOAD","status":"ACTIVE","operator":null,"country":"US","launch_date":"2025-04-22","launch_site_code":"AFETR","launch_vehicle":null,"mission":null,"orbit_class":"UNKNOWN","rcs_meters":null,"size_class":null,"mass_kg":null,"dimensions":null,"purposes":[],"wikipedia_slug":null,"has_3d_model":false,"image_url":null,"decayed_at":null,"tle_current":{"epoch":"2026-05-25T04:52:33.900960Z","epoch_age_seconds":47759,"freshness":"FRESH","line1":"1 63631U 25081B   26145.20317015  .00001457  00000+0  13521-3 0  9993","line2":"2 63631  45.3912  95.1737 0001104 175.6654 184.4233 14.99525243 59729","mean_motion":14.99525243,"eccentricity":0.0001104,"inclination_deg":45.3912,"raan_deg":95.1737,"arg_perigee_deg":175.6654,"mean_anomaly_deg":184.4233,"bstar":0.00013521,"rev_number":5972,"period_min":96.030394067864,"perigee_km":567.59526240934,"apogee_km":569.12904942296,"semimajor_km":6946.4991559161,"source":"CELESTRAK","updated_at":"2026-05-25T13:38:03.847177Z"}}}